Weather History for Erie, PA

Change the Weather History Date:

Thursday, August 29, 2013

  Actual Average Record
Temperature  
Mean Temperature 75 °F 69 °F  
Max Temperature 81 °F 77 °F 93 °F (1953)
Min Temperature 68 °F 61 °F 37 °F (1982)
Degree Days  
Heating Degree Days 0 1  
Month to date heating degree days 9 4  
Since 1 June heating degree days 80 72  
Since 1 July heating degree days 12 11  
Cooling Degree Days 10 5  
Month to date cooling degree days 150 175  
Year to date cooling degree days 600 550  
Since 1 June cooling degree days 515 511  
Growing Degree Days 24 (Base 50)    
Moisture  
Dew Point 68 °F    
Average Humidity 82    
Maximum Humidity 97    
Minimum Humidity 67    
Precipitation  
Precipitation 0.00 in 0.11 in 1.06 in (1949)
Month to date precipitation 3.22 3.25  
Year to date precipitation 33.35 25.61  
Snow  
Snow 0.00 in 0.00 in - ()
Month to date snowfall 0.0 0.0  
Since 1 June snowfall 0.0 0.0  
Since 1 July snowfall 0.0 0.0  
Snow Depth 0.00 in    
Sea Level Pressure  
Sea Level Pressure 30.02 in    
Wind  
Wind Speed 4 mph (NE)    
Max Wind Speed 12 mph    
Max Gust Speed 14 mph    
Visibility 5 miles    
Events Fog    
T = Trace of Precipitation, MM = Missing Value Source: NWS Daily Summary

Daily Weather History Graph

Daily Weather History Graph

Search for Another Location

Airport:

Trip Planner

Search our weather history database for the weather conditions in past years. The results will help you decide how hot, cold, wet, or windy it might be!

Date:

Astronomy

Aug. 29, 2013 Rise Set
Actual Time 6:43 AM EDT 7:59 PM EDT
Civil Twilight 6:14 AM EDT 8:27 PM EDT
Nautical Twilight 5:39 AM EDT 9:02 PM EDT
Astronomical Twilight 5:03 AM EDT 9:38 PM EDT
Moon 12:30 AM EDT (8/29) 3:29 PM EDT (8/29)
Length of Visible Light 14h 13m
Length of Day
13h 15m
Last Quarter, 38% of the Moon is Illuminated
Aug 29
Last Quarter
Sep 5
New
Sep 12
First Quarter
Sep 19
Full
Sep 26
Last Quarter

Hourly Weather History & Observations

Time (EDT) Temp. Heat Index Dew Point Humidity Pressure Visibility Wind Dir Wind Speed Gust Speed Precip Events Conditions
12:40 AM 71.6 °F - 69.8 °F 94% 29.97 in 8.0 mi Calm Calm - N/A   Scattered Clouds
12:49 AM 71.6 °F - 69.8 °F 94% 29.97 in 7.0 mi Calm Calm - N/A   Mostly Cloudy
12:51 AM 72.0 °F - 69.1 °F 91% 29.96 in 7.0 mi Calm Calm - N/A   Mostly Cloudy
1:51 AM 73.0 °F - 70.0 °F 90% 29.96 in 5.0 mi ENE 8.1 mph - N/A   Overcast
2:51 AM 73.0 °F - 69.1 °F 87% 29.96 in 6.0 mi NE 8.1 mph - N/A   Overcast
3:51 AM 72.0 °F - 69.1 °F 91% 29.97 in 5.0 mi ENE 10.4 mph - N/A   Overcast
4:35 AM 71.6 °F - 66.2 °F 83% 29.99 in 4.0 mi Calm Calm - N/A   Scattered Clouds
4:51 AM 71.1 °F - 68.0 °F 90% 29.98 in 4.0 mi Calm Calm - N/A   Clear
5:15 AM 69.8 °F - 66.2 °F 88% 30.00 in 2.5 mi Calm Calm - N/A   Clear
5:36 AM 69.8 °F - 66.2 °F 88% 30.00 in 1.2 mi Calm Calm - N/A   Partly Cloudy
5:38 AM 68.0 °F - 66.2 °F 94% 30.00 in 0.8 mi Calm Calm - N/A   Mist
5:46 AM 68.0 °F - 66.2 °F 94% 30.01 in 0.5 mi Calm Calm - N/A Fog Fog
5:51 AM 68.0 °F - 66.0 °F 93% 29.99 in 1.0 mi Calm Calm - N/A   Mostly Cloudy
5:57 AM 68.0 °F - 66.2 °F 94% 30.01 in 3.0 mi Calm Calm - N/A   Mostly Cloudy
6:48 AM 69.8 °F - 66.2 °F 88% 30.02 in 2.0 mi Calm Calm - N/A   Scattered Clouds
6:49 AM 69.8 °F - 66.2 °F 88% 30.02 in 1.8 mi Calm Calm - N/A   Scattered Clouds
6:51 AM 69.1 °F - 66.9 °F 93% 30.01 in 1.8 mi Calm Calm - N/A   Scattered Clouds
7:44 AM 69.8 °F - 66.2 °F 88% 30.04 in 2.0 mi ENE 3.5 mph - N/A   Scattered Clouds
7:51 AM 70.0 °F - 68.0 °F 93% 30.03 in 2.5 mi ENE 3.5 mph - N/A   Scattered Clouds
7:58 AM 71.6 °F - 68.0 °F 88% 30.04 in 2.5 mi ENE 5.8 mph - N/A   Mostly Cloudy
8:21 AM 71.6 °F - 68.0 °F 88% 30.05 in 3.0 mi ENE 8.1 mph - N/A   Mostly Cloudy
8:30 AM 71.6 °F - 68.0 °F 88% 30.05 in 3.0 mi ENE 6.9 mph - N/A   Scattered Clouds
8:51 AM 73.0 °F - 68.0 °F 84% 30.04 in 4.0 mi ENE 6.9 mph - N/A   Haze
9:51 AM 77.0 °F - 66.9 °F 71% 30.05 in 10.0 mi ENE 6.9 mph - N/A   Clear
10:51 AM 75.9 °F - 68.0 °F 76% 30.06 in 9.0 mi North 6.9 mph - N/A   Clear
11:51 AM 78.1 °F - 69.1 °F 74% 30.06 in 8.0 mi North 6.9 mph - N/A   Clear
12:51 PM 79.0 °F - 68.0 °F 69% 30.06 in 10.0 mi North 6.9 mph - N/A   Clear
1:51 PM 80.1 °F 82.9 °F 69.1 °F 69% 30.05 in 10.0 mi North 6.9 mph - N/A   Clear
2:51 PM 80.1 °F 82.7 °F 68.0 °F 67% 30.04 in 10.0 mi North 9.2 mph - N/A   Clear
3:51 PM 80.1 °F 82.9 °F 69.1 °F 69% 30.03 in 9.0 mi North 9.2 mph - N/A   Clear
4:51 PM 80.1 °F 82.7 °F 68.0 °F 67% 30.03 in 7.0 mi Variable 4.6 mph - N/A   Clear
5:51 PM 79.0 °F - 68.0 °F 69% 30.03 in 10.0 mi NNW 5.8 mph - N/A   Clear
6:51 PM 77.0 °F - 70.0 °F 79% 30.03 in 9.0 mi NNW 6.9 mph - N/A   Clear
7:51 PM 75.9 °F - 70.0 °F 82% 30.02 in 7.0 mi Calm Calm - N/A   Clear
8:51 PM 73.9 °F - 70.0 °F 87% 30.03 in 7.0 mi Calm Calm - N/A   Clear
9:51 PM 72.0 °F - 69.1 °F 91% 30.04 in 6.0 mi Calm Calm - N/A   Clear
10:51 PM 71.1 °F - 68.0 °F 90% 30.04 in 5.0 mi Calm Calm - N/A   Clear
11:51 PM 70.0 °F - 66.9 °F 90% 30.02 in 5.0 mi SSW 3.5 mph - N/A   Clear